M I D A S
Marine Information and Data Acquisition System
Tripno 1647 of the Zeeleeuw from 2009-02-26 08:03:46 to 2009-02-26 16:14:52
Back to CruiseResearch ActivitiesStationsMapUnderway DataData graphs

EquipmentUnitsComment
TimeDGPSUTC
LatitudeDGPSDM.mWGS84
LongitudeDGPSDM.mWGS84
TemperatureSBE03/SBE38deg celciusITS90
ConductivitySBE21S/mITS90
SalinitySBE21 Practical Salinity Units
ChlorophylAChelsea fluorimeterg/lCalibrated in Aceton
Missing or incorrect values are displayed as -999
Sea surface data collected by the RV Zeeleeuw from 2009-02-26 08:00:54 to 2009-02-26 16:33:56
Time Latitude Longitude Temperature Conductivity Salinity ChlorophylA
2009-02-26 08:01:59 51°13.661 2°55.96 -999 0.076682 0.403114 -1.209513
2009-02-26 08:02:59 51°13.66 2°55.959 -999 0.076682 0.403107 -1.174688
2009-02-26 08:03:59 51°13.666 2°55.936 -999 0.076682 0.403101 -1.209513
2009-02-26 08:04:59 51°13.687 2°55.851 -999 0.076682 0.403101 -1.209513
2009-02-26 08:05:59 51°13.694 2°55.763 -999 0.076682 0.403067 -1.209513
2009-02-26 08:06:59 51°13.702 2°55.754 -999 0.076682 0.403067 -1.209513
2009-02-26 08:07:59 51°13.707 2°55.757 -999 0.076682 0.403053 -1.209513
2009-02-26 08:08:59 51°13.707 2°55.749 -999 0.076682 0.403067 -1.174688
2009-02-26 08:09:59 51°13.786 2°55.675 -999 0.076682 0.403047 -1.209513
2009-02-26 08:10:59 51°13.908 2°55.577 -999 0.076682 0.403053 -1.244337
2009-02-26 08:11:59 51°14.039 2°55.478 -999 0.076682 0.40304 -1.209513
2009-02-26 08:12:59 51°14.168 2°55.374 -999 0.076682 0.403033 -1.244337
2009-02-26 08:13:59 51°14.279 2°55.228 -999 0.076682 0.403033 -1.174688
2009-02-26 08:14:59 51°14.374 2°55.048 -999 0.076682 0.403026 -1.209513
2009-02-26 08:15:59 51°14.495 2°54.883 -999 0.076682 0.403114 -1.174688
2009-02-26 08:16:59 51°14.634 2°54.707 -999 0.076682 0.40308 -1.209513
2009-02-26 08:17:59 51°14.788 2°54.518 -999 0.076682 0.40304 -1.209513
2009-02-26 08:18:59 51°14.943 2°54.333 -999 0.076682 0.403033 -1.209513
2009-02-26 08:19:59 51°15.096 2°54.157 -999 0.076682 0.403033 -1.209513
2009-02-26 08:20:59 51°15.255 2°53.985 -999 0.076682 0.403033 -1.209513
2009-02-26 08:21:59 51°15.417 2°53.816 -999 0.076682 0.403047 -1.244337
2009-02-26 08:22:59 51°15.583 2°53.657 -999 0.076682 0.403053 -1.244337
2009-02-26 08:23:59 51°15.753 2°53.501 -999 0.076682 0.403067 -1.209513
2009-02-26 08:24:59 51°15.918 2°53.332 -999 0.076682 0.403087 -1.209513
2009-02-26 08:25:59 51°16.084 2°53.171 -999 0.076682 0.403101 -1.244337
2009-02-26 08:26:59 51°16.25 2°53.011 -999 0.076682 0.403121 -1.209513
2009-02-26 08:27:59 51°16.421 2°52.872 -999 0.076682 0.403134 -1.209513
2009-02-26 08:28:59 51°16.601 2°52.772 -999 0.076682 0.403155 -1.209513
2009-02-26 08:29:59 51°16.779 2°52.686 -999 0.076682 0.403168 -1.209513
2009-02-26 08:30:59 51°16.955 2°52.605 -999 0.076682 0.403195 -1.209513
2009-02-26 08:31:59 51°17.129 2°52.528 -999 0.076682 0.403182 -1.244337
2009-02-26 08:32:59 51°17.306 2°52.491 -999 0.076682 0.403209 -1.244337
2009-02-26 08:33:59 51°17.461 2°52.606 -999 0.076682 0.403229 -1.244337
2009-02-26 08:34:59 51°17.593 2°52.786 -999 0.076682 0.403236 -1.244337
2009-02-26 08:35:59 51°17.719 2°52.978 -999 0.076682 0.403256 -1.244337
2009-02-26 08:36:59 51°17.84 2°53.173 -999 0.076682 0.403263 -1.244337
2009-02-26 08:37:59 51°17.964 2°53.363 -999 0.076682 0.40329 -1.244337
2009-02-26 08:38:59 51°18.088 2°53.55 -999 0.076682 0.403317 -1.244337
2009-02-26 08:39:59 51°18.209 2°53.741 -999 0.076682 0.403344 -1.209513
2009-02-26 08:40:59 51°18.304 2°53.97 -999 0.076682 0.403344 -1.244337
2009-02-26 08:41:59 51°18.385 2°54.218 -999 0.076682 0.403337 -1.244337
2009-02-26 08:42:59 51°18.472 2°54.46 -999 0.076682 0.403357 -1.244337
2009-02-26 08:43:59 51°18.559 2°54.698 -999 0.076682 0.403391 -1.244337
2009-02-26 08:44:59 51°18.646 2°54.935 -999 0.076682 0.403418 -1.244337
2009-02-26 08:45:59 51°18.734 2°55.172 -999 0.076682 0.403425 -1.244337
2009-02-26 08:46:59 51°18.814 2°55.415 -999 0.076682 0.403445 -1.244337
2009-02-26 08:47:59 51°18.889 2°55.658 -999 0.076682 0.403459 -1.244337
2009-02-26 08:48:59 51°18.966 2°55.895 -999 0.076682 0.403493 -1.244337
2009-02-26 08:49:59 51°19.045 2°56.128 -999 0.076579 0.402987 -1.209513
2009-02-26 08:50:59 51°19.124 2°56.36 -999 0.076579 0.402994 -1.209513
2009-02-26 08:51:59 51°19.206 2°56.592 -999 0.076579 0.402994 -1.209513
2009-02-26 08:52:59 51°19.284 2°56.826 -999 0.076579 0.402987 -0.652328
2009-02-26 08:53:59 51°19.365 2°57.059 -999 0.076579 0.403055 4.04892
2009-02-26 08:54:59 51°19.444 2°57.294 -999 0.076579 0.403129 2.969374
2009-02-26 08:55:59 51°19.524 2°57.529 -999 0.076579 0.403163 2.725606
2009-02-26 08:56:59 51°19.605 2°57.766 -999 0.076579 0.40319 2.690782
2009-02-26 08:57:59 51°19.688 2°58.001 -999 0.076579 0.403237 2.725606
2009-02-26 08:58:59 51°19.769 2°58.238 -999 0.076579 0.403264 2.586309
2009-02-26 08:59:59 51°19.852 2°58.474 -999 0.076579 0.403312 2.551485
2009-02-26 09:00:59 51°19.936 2°58.708 -999 0.076579 0.403339 2.830078
2009-02-26 09:01:59 51°20.02 2°58.943 -999 0.076579 0.403352 2.795254
2009-02-26 09:02:59 51°20.105 2°59.176 -999 0.076476 0.402867 2.76043
2009-02-26 09:03:59 51°20.188 2°59.413 -999 0.076476 0.402873 2.655957
2009-02-26 09:04:59 51°20.271 2°59.652 -999 0.076476 0.402901 2.551485
2009-02-26 09:05:59 51°20.355 2°59.898 -999 0.076476 0.402948 2.481837
2009-02-26 09:06:59 51°20.44 3°0.144 -999 0.076476 0.403016 2.481837
2009-02-26 09:07:59 51°20.524 3°0.387 -999 0.076476 0.403036 2.481837
2009-02-26 09:08:59 51°20.607 3°0.637 -999 0.076476 0.403043 2.481837
2009-02-26 09:09:59 51°20.694 3°0.882 -999 0.076476 0.403077 2.481837
2009-02-26 09:10:59 51°20.776 3°1.133 -999 0.076476 0.403083 2.516661
2009-02-26 09:11:59 51°20.862 3°1.382 -999 0.076476 0.403138 2.586309
2009-02-26 09:12:59 51°20.946 3°1.636 -999 0.076476 0.403138 2.795254
2009-02-26 09:13:59 51°21.035 3°1.885 -999 0.076476 0.403178 2.864902
2009-02-26 09:14:59 51°21.121 3°2.135 -999 0.076476 0.403233 3.143494
2009-02-26 09:15:59 51°21.2 3°2.39 -999 0.076476 0.403273 3.213142
2009-02-26 09:16:59 51°21.246 3°2.667 -999 0.076476 0.403266 3.178318
2009-02-26 09:17:59 51°21.291 3°2.944 -999 0.076476 0.403314 3.178318
2009-02-26 09:18:59 51°21.334 3°3.224 -999 0.076476 0.403341 3.422087
2009-02-26 09:19:59 51°21.38 3°3.503 -999 0.076476 0.403375 3.839975
2009-02-26 09:20:59 51°21.426 3°3.781 -999 0.076373 0.402855 3.909623
2009-02-26 09:21:59 51°21.475 3°4.059 -999 0.076373 0.402902 4.014096
2009-02-26 09:22:59 51°21.525 3°4.338 -999 0.076373 0.402882 4.04892
2009-02-26 09:23:59 51°21.57 3°4.618 -999 0.076373 0.402923 3.735503
2009-02-26 09:24:59 51°21.617 3°4.893 -999 0.076373 0.402956 3.561383
2009-02-26 09:25:59 51°21.664 3°5.169 -999 0.076373 0.402956 3.247966
2009-02-26 09:26:59 51°21.713 3°5.445 -999 0.076373 0.403045 2.551485
2009-02-26 09:27:59 51°21.764 3°5.72 -999 0.076373 0.403038 2.342541
2009-02-26 09:28:59 51°21.815 3°5.996 -999 0.076373 0.403045 2.168421
2009-02-26 09:29:59 51°21.863 3°6.274 -999 0.076373 0.403106 2.063949
2009-02-26 09:30:59 51°21.912 3°6.553 -999 0.076373 0.403119 1.924652
2009-02-26 09:31:59 51°21.968 3°6.826 -999 0.076373 0.403194 1.82018
2009-02-26 09:32:59 51°22.018 3°7.105 -999 0.076373 0.403194 1.715708
2009-02-26 09:33:59 51°22.067 3°7.387 -999 0.076373 0.403221 1.611236
2009-02-26 09:34:59 51°22.125 3°7.666 -999 0.076373 0.403248 1.576412
2009-02-26 09:35:59 51°22.192 3°7.942 -999 0.076373 0.403289 1.576412
2009-02-26 09:36:59 51°22.262 3°8.217 -999 0.076373 0.403337 1.576412
2009-02-26 09:37:59 51°22.339 3°8.486 -999 0.076373 0.40335 1.576412
2009-02-26 09:38:59 51°22.389 3°8.67 -999 0.076373 0.403391 1.680884
2009-02-26 09:39:59 51°22.417 3°8.779 -999 0.07627 0.402863 1.680884
2009-02-26 09:40:59 51°22.435 3°8.853 -999 0.07627 0.402911 1.680884
2009-02-26 09:41:59 51°22.42 3°8.929 -999 0.07627 0.402965 1.64606
2009-02-26 09:42:59 51°22.348 3°8.97 -999 0.07627 0.402992 1.680884
2009-02-26 09:43:59 51°22.275 3°9.052 -999 0.07627 0.403026 1.715708
2009-02-26 09:44:59 51°22.171 3°9.142 -999 0.07627 0.403081 1.680884
2009-02-26 09:45:59 51°22.07 3°9.242 -999 0.07627 0.403101 1.680884
2009-02-26 09:46:59 51°22.006 3°9.295 -999 0.07627 0.403142 1.750532
2009-02-26 09:47:59 51°21.949 3°9.294 -999 0.07627 0.403203 1.715708
2009-02-26 09:48:59 51°21.895 3°9.262 -999 0.07627 0.403244 1.64606
2009-02-26 09:49:59 51°21.846 3°9.208 -999 0.07627 0.403292 1.576412
2009-02-26 09:50:59 51°21.812 3°9.131 -999 0.07627 0.403339 1.506764
2009-02-26 09:51:59 51°21.78 3°9.051 -999 0.076168 0.402811 1.506764
2009-02-26 09:52:59 51°21.756 3°8.978 -999 0.076168 0.402859 1.47194
2009-02-26 09:53:59 51°21.74 3°8.908 -999 0.076168 0.402893 1.437116
2009-02-26 09:54:59 51°21.718 3°8.826 -999 0.076168 0.402927 1.437116
2009-02-26 09:55:59 51°21.688 3°8.741 -999 0.076168 0.402954 1.437116
2009-02-26 09:56:59 51°21.661 3°8.658 -999 0.076168 0.402988 1.437116
2009-02-26 09:57:59 51°21.638 3°8.58 -999 0.076168 0.403015 1.437116
2009-02-26 09:58:59 51°21.615 3°8.501 -999 0.076168 0.403056 1.367467
2009-02-26 09:59:59 51°21.591 3°8.424 -999 0.076168 0.403077 1.332643
2009-02-26 10:00:59 51°21.566 3°8.347 -999 0.076168 0.403111 1.332643
2009-02-26 10:01:59 51°21.542 3°8.257 -999 0.076168 0.403145 1.332643
2009-02-26 10:02:59 51°21.514 3°8.155 -999 0.076168 0.403165 1.262995
2009-02-26 10:03:59 51°21.484 3°8.052 -999 0.076168 0.403192 1.297819
2009-02-26 10:04:59 51°21.457 3°7.947 -999 0.076168 0.40322 1.332643
2009-02-26 10:05:59 51°21.421 3°7.851 -999 0.076168 0.403254 1.402292
2009-02-26 10:06:59 51°21.378 3°7.763 -999 0.076168 0.403274 1.402292
2009-02-26 10:07:59 51°21.334 3°7.674 -999 0.076168 0.403302 1.402292
2009-02-26 10:08:59 51°21.291 3°7.584 -999 0.076168 0.403336 1.332643
2009-02-26 10:09:59 51°21.253 3°7.488 -999 0.076065 0.402806 1.297819
2009-02-26 10:10:59 51°21.217 3°7.389 -999 0.076065 0.402834 1.297819
2009-02-26 10:11:59 51°21.179 3°7.293 -999 0.076065 0.402875 1.297819
2009-02-26 10:12:59 51°21.145 3°7.194 -999 0.076065 0.402902 1.367467
2009-02-26 10:13:59 51°21.12 3°7.09 -999 0.076065 0.402936 1.332643
2009-02-26 10:14:59 51°21.097 3°6.983 -999 0.076065 0.402977 1.332643
2009-02-26 10:15:59 51°21.074 3°6.878 -999 0.076065 0.403004 1.402292
2009-02-26 10:16:59 51°21.051 3°6.771 -999 0.076065 0.403038 1.47194
2009-02-26 10:17:59 51°21.025 3°6.666 -999 0.076065 0.403066 1.506764
2009-02-26 10:18:59 51°21.002 3°6.56 -999 0.076065 0.4031 1.576412
2009-02-26 10:19:59 51°20.978 3°6.453 -999 0.076065 0.403134 1.611236
2009-02-26 10:20:59 51°20.957 3°6.348 -999 0.076065 0.403161 1.750532
2009-02-26 10:21:59 51°20.97 3°6.26 -999 0.076065 0.403216 1.855004
2009-02-26 10:22:59 51°21.008 3°6.248 -999 0.076065 0.40325 1.82018
2009-02-26 10:23:59 51°21.016 3°6.303 -999 0.076065 0.403271 2.168421
2009-02-26 10:24:59 51°20.981 3°6.343 -999 0.076065 0.403318 2.168421
2009-02-26 10:25:59 51°20.946 3°6.355 -999 0.076065 0.403359 1.855004
2009-02-26 10:26:59 51°20.907 3°6.352 -999 0.075962 0.402843 1.611236
2009-02-26 10:27:59 51°20.847 3°6.25 -999 0.075962 0.402918 1.506764
2009-02-26 10:28:59 51°20.794 3°6.068 -999 0.075962 0.402987 1.64606
2009-02-26 10:29:59 51°20.741 3°5.849 -999 0.075962 0.403055 1.64606
2009-02-26 10:30:59 51°20.708 3°5.697 -999 0.075962 0.403123 1.785356
2009-02-26 10:31:59 51°20.664 3°5.613 -999 0.075962 0.403178 1.959476
2009-02-26 10:32:59 51°20.617 3°5.547 -999 0.075859 0.402661 1.959476
2009-02-26 10:33:59 51°20.545 3°5.448 -999 0.075859 0.402716 1.855004
2009-02-26 10:34:59 51°20.45 3°5.313 -999 0.075859 0.402764 1.680884
2009-02-26 10:35:59 51°20.342 3°5.152 -999 0.075859 0.402805 1.611236
2009-02-26 10:36:59 51°20.225 3°4.976 -999 0.075859 0.402853 1.680884
2009-02-26 10:37:59 51°20.097 3°4.773 -999 0.075859 0.402887 1.889828
2009-02-26 10:38:59 51°19.948 3°4.548 -999 0.075859 0.402921 1.959476
2009-02-26 10:39:59 51°19.798 3°4.321 -999 0.075756 0.402411 2.029124
2009-02-26 10:40:59 51°19.648 3°4.096 -999 0.075756 0.402438 2.203245
2009-02-26 10:41:59 51°19.505 3°3.863 -999 0.075756 0.402486 2.342541
2009-02-26 10:42:59 51°19.383 3°3.603 -999 0.075756 0.402527 2.516661
2009-02-26 10:43:59 51°19.258 3°3.349 -999 0.075756 0.402582 2.551485
2009-02-26 10:44:59 51°19.118 3°3.116 -999 0.075756 0.402637 2.586309
2009-02-26 10:45:59 51°18.975 3°2.885 -999 0.075756 0.402685 2.621133
2009-02-26 10:46:59 51°18.827 3°2.661 -999 0.075756 0.402746 2.795254
2009-02-26 10:47:59 51°18.68 3°2.432 -999 0.075756 0.402794 2.690782
2009-02-26 10:48:59 51°18.54 3°2.19 -999 0.075756 0.402842 2.551485
2009-02-26 10:49:59 51°18.401 3°1.944 -999 0.075653 0.402325 2.481837
2009-02-26 10:50:59 51°18.271 3°1.689 -999 0.075653 0.402373 2.481837
2009-02-26 10:51:59 51°18.145 3°1.429 -999 0.075653 0.402421 2.447013
2009-02-26 10:52:59 51°18.024 3°1.163 -999 0.075653 0.402462 2.481837
2009-02-26 10:53:59 51°17.904 3°0.897 -999 0.075653 0.40251 2.481837
2009-02-26 10:54:59 51°17.782 3°0.632 -999 0.075653 0.402551 2.551485
2009-02-26 10:55:59 51°17.664 3°0.366 -999 0.075653 0.402585 2.621133
2009-02-26 10:56:59 51°17.545 3°0.102 -999 0.075653 0.402626 2.586309
2009-02-26 10:57:59 51°17.428 2°59.836 -999 0.075653 0.402667 2.586309
2009-02-26 10:58:59 51°17.311 2°59.569 -999 0.07555 0.402142 2.830078
2009-02-26 10:59:59 51°17.191 2°59.302 -999 0.07555 0.402183 3.039022
2009-02-26 11:00:59 51°17.068 2°59.039 -999 0.07555 0.402225 3.004198
2009-02-26 11:01:59 51°16.949 2°58.771 -999 0.07555 0.402252 3.039022
2009-02-26 11:02:59 51°16.83 2°58.503 -999 0.07555 0.4023 3.039022
2009-02-26 11:03:59 51°16.71 2°58.239 -999 0.07555 0.402341 3.039022
2009-02-26 11:04:59 51°16.593 2°57.972 -999 0.07555 0.402382 2.93455
2009-02-26 11:05:59 51°16.473 2°57.709 -999 0.07555 0.402417 2.899726
2009-02-26 11:06:59 51°16.355 2°57.443 -999 0.07555 0.402458 3.073846
2009-02-26 11:07:59 51°16.237 2°57.18 -999 0.07555 0.402485 3.10867
2009-02-26 11:08:59 51°16.118 2°56.92 -999 0.07555 0.402485 3.10867
2009-02-26 11:09:59 51°16.001 2°56.66 -999 0.07555 0.402568 2.969374
2009-02-26 11:10:59 51°15.885 2°56.401 -999 0.075447 0.402028 3.073846
2009-02-26 11:11:59 51°15.77 2°56.14 -999 0.075447 0.40207 3.039022
2009-02-26 11:12:59 51°15.656 2°55.882 -999 0.075447 0.402111 3.10867
2009-02-26 11:13:59 51°15.542 2°55.627 -999 0.075447 0.402152 3.143494
2009-02-26 11:14:59 51°15.429 2°55.377 -999 0.075447 0.402186 3.387263
2009-02-26 11:15:59 51°15.297 2°55.149 -999 0.075447 0.402234 3.317614
2009-02-26 11:16:59 51°15.157 2°54.931 -999 0.075447 0.402269 3.178318
2009-02-26 11:17:59 51°15.012 2°54.722 -999 0.075447 0.402317 3.247966
2009-02-26 11:18:59 51°14.871 2°54.504 -999 0.075447 0.402351 3.317614
2009-02-26 11:19:59 51°14.725 2°54.296 -999 0.075447 0.402399 3.387263
2009-02-26 11:20:59 51°14.572 2°54.107 -999 0.075344 0.401866 3.456911
2009-02-26 11:21:59 51°14.419 2°53.916 -999 0.075344 0.401907 3.422087
2009-02-26 11:22:59 51°14.273 2°53.718 -999 0.075344 0.401949 3.526559
2009-02-26 11:23:59 51°14.146 2°53.49 -999 0.075344 0.40199 3.561383
2009-02-26 11:24:59 51°14.024 2°53.254 -999 0.075344 0.402031 3.596207
2009-02-26 11:25:59 51°13.903 2°53.017 -999 0.075344 0.402065 3.805151
2009-02-26 11:26:59 51°13.779 2°52.784 -999 0.075344 0.402114 3.979271
2009-02-26 11:27:59 51°13.671 2°52.588 -999 0.075344 0.402148 4.118568
2009-02-26 11:28:59 51°13.574 2°52.401 -999 0.075344 0.402189 4.118568
2009-02-26 11:29:59 51°13.508 2°52.188 -999 0.075344 0.402237 4.04892
2009-02-26 11:30:59 51°13.482 2°51.956 -999 0.075344 0.402279 4.083744
2009-02-26 11:31:59 51°13.493 2°51.718 -999 0.075241 0.401766 4.014096
2009-02-26 11:32:59 51°13.456 2°51.497 -999 0.075241 0.401793 4.153392
2009-02-26 11:33:59 51°13.376 2°51.325 -999 0.075241 0.401835 4.292688
2009-02-26 11:34:59 51°13.313 2°51.284 -999 0.075241 0.401883 4.327512
2009-02-26 11:35:59 51°13.261 2°51.273 -999 0.075241 0.40191 4.22304
2009-02-26 11:36:59 51°13.204 2°51.225 -999 0.075241 0.401965 4.118568
2009-02-26 11:37:59 51°13.162 2°51.176 -999 0.075241 0.402007 3.979271
2009-02-26 11:38:59 51°13.135 2°51.148 -999 0.075241 0.402048 3.979271
2009-02-26 11:39:59 51°13.113 2°51.112 -999 0.075241 0.402089 3.874799
2009-02-26 11:40:59 51°13.088 2°51.062 -999 0.075241 0.402131 3.770327
2009-02-26 11:41:59 51°13.056 2°51.016 -999 0.075241 0.402165 3.665855
2009-02-26 11:42:59 51°13.021 2°50.97 -999 0.075139 0.401631 3.839975
2009-02-26 11:43:59 51°12.987 2°50.923 -999 0.075139 0.401672 3.874799
2009-02-26 11:44:59 51°12.951 2°50.878 -999 0.075139 0.401707 3.735503
2009-02-26 11:45:59 51°12.914 2°50.825 -999 0.075139 0.401748 3.700679
2009-02-26 11:46:59 51°12.875 2°50.769 -999 0.075139 0.401789 3.909623
2009-02-26 11:47:59 51°12.839 2°50.719 -999 0.075139 0.401831 4.083744
2009-02-26 11:48:59 51°12.815 2°50.667 -999 0.075139 0.401872 4.153392
2009-02-26 11:49:59 51°12.797 2°50.607 -999 0.075139 0.40192 3.979271
2009-02-26 11:50:59 51°12.777 2°50.545 -999 0.075139 0.401955 3.874799
2009-02-26 11:51:59 51°12.755 2°50.48 -999 0.075139 0.401996 4.118568
2009-02-26 11:52:59 51°12.733 2°50.415 -999 0.075139 0.402038 4.257864
2009-02-26 11:53:59 51°12.712 2°50.348 -999 0.075036 0.401517 4.292688
2009-02-26 11:54:59 51°12.69 2°50.284 -999 0.075036 0.401551 4.39716
2009-02-26 11:55:59 51°12.668 2°50.22 -999 0.075036 0.401599 4.501632
2009-02-26 11:56:59 51°12.647 2°50.158 -999 0.075036 0.401634 4.536456
2009-02-26 11:57:59 51°12.624 2°50.096 -999 0.075036 0.401682 4.536456
2009-02-26 11:58:59 51°12.602 2°50.035 -999 0.075036 0.401723 4.745401
2009-02-26 11:59:59 51°12.581 2°49.979 -999 0.075036 0.401765 5.058817
2009-02-26 12:00:59 51°12.561 2°49.92 -999 0.075036 0.401806 5.058817
2009-02-26 12:01:59 51°12.54 2°49.863 -999 0.075036 0.401841 4.989169
2009-02-26 12:02:59 51°12.519 2°49.811 -999 0.075036 0.401882 4.989169
2009-02-26 12:03:59 51°12.5 2°49.757 -999 0.075036 0.401924 4.919521
2009-02-26 12:04:59 51°12.481 2°49.703 -999 0.075036 0.401958 4.780225
2009-02-26 12:05:59 51°12.462 2°49.649 -999 0.075036 0.402 4.675753
2009-02-26 12:06:59 51°12.453 2°49.599 -999 0.075036 0.402041 4.745401
2009-02-26 12:07:59 51°12.462 2°49.568 -999 0.075036 0.402083 4.745401
2009-02-26 12:08:59 51°12.474 2°49.543 -999 0.074933 0.401554 4.536456
2009-02-26 12:09:59 51°12.475 2°49.503 -999 0.074933 0.401589 4.431984
2009-02-26 12:10:59 51°12.435 2°49.36 -999 0.074933 0.40163 4.466808
2009-02-26 12:11:59 51°12.376 2°49.17 -999 0.074933 0.401665 4.919521
2009-02-26 12:12:59 51°12.305 2°48.94 -999 0.074933 0.40172 5.476706
2009-02-26 12:13:59 51°12.234 2°48.707 -999 0.074933 0.401754 5.894594
2009-02-26 12:14:59 51°12.161 2°48.475 -999 0.074933 0.401803 5.964243
2009-02-26 12:15:59 51°12.09 2°48.239 -999 0.074933 0.40183 6.068715
2009-02-26 12:16:59 51°12.021 2°48 -999 0.074933 0.401872 5.964243
2009-02-26 12:17:59 51°11.952 2°47.761 -999 0.074933 0.40192 5.894594
2009-02-26 12:18:59 51°11.877 2°47.527 -999 0.074933 0.401962 5.894594
2009-02-26 12:19:59 51°11.807 2°47.29 -999 0.074933 0.402004 5.85977
2009-02-26 12:20:59 51°11.741 2°47.048 -999 0.074933 0.402045 6.138363
2009-02-26 12:21:59 51°11.713 2°46.789 -999 0.074933 0.402094 6.347307
2009-02-26 12:22:59 51°11.687 2°46.532 -999 0.074933 0.402128 6.451779
2009-02-26 12:23:59 51°11.654 2°46.275 -999 0.07483 0.401599 5.546354
2009-02-26 12:24:59 51°11.622 2°46.015 -999 0.07483 0.40164 4.954345
2009-02-26 12:25:59 51°11.591 2°45.755 -999 0.07483 0.401675 5.093641
2009-02-26 12:26:59 51°11.561 2°45.497 -999 0.07483 0.401717 5.232937
2009-02-26 12:27:59 51°11.533 2°45.237 -999 0.07483 0.401758 5.232937
2009-02-26 12:28:59 51°11.502 2°44.979 -999 0.07483 0.401807 5.407058
2009-02-26 12:29:59 51°11.47 2°44.723 -999 0.07483 0.401855 5.616002
2009-02-26 12:30:59 51°11.424 2°44.471 -999 0.07483 0.401897 5.720474
2009-02-26 12:31:59 51°11.364 2°44.225 -999 0.07483 0.401938 6.068715
2009-02-26 12:32:59 51°11.3 2°43.982 -999 0.07483 0.401987 6.451779
2009-02-26 12:33:59 51°11.242 2°43.731 -999 0.07483 0.402035 6.80002
2009-02-26 12:34:59 51°11.181 2°43.477 -999 0.07483 0.40207 7.461677
2009-02-26 12:35:59 51°11.122 2°43.233 -999 0.07483 0.402112 8.471574
2009-02-26 12:36:59 51°11.063 2°42.989 -999 0.07483 0.40216 7.775093
2009-02-26 12:37:59 51°11.005 2°42.744 -999 0.07483 0.402202 7.008964
2009-02-26 12:38:59 51°10.946 2°42.5 -999 0.074727 0.401679 7.775093
2009-02-26 12:39:59 51°10.883 2°42.26 -999 0.074727 0.40172 8.506398
2009-02-26 12:40:59 51°10.822 2°42.017 -999 0.074727 0.401755 8.401926
2009-02-26 12:41:59 51°10.764 2°41.772 -999 0.074727 0.401804 9.620768
2009-02-26 12:42:59 51°10.701 2°41.526 -999 0.074727 0.401838 10.700314
2009-02-26 12:43:59 51°10.643 2°41.28 -999 0.074727 0.401887 11.814684
2009-02-26 12:44:59 51°10.586 2°41.033 -999 0.074727 0.401929 12.197748
2009-02-26 12:45:59 51°10.531 2°40.789 -999 0.074727 0.40197 13.033525
2009-02-26 12:46:59 51°10.47 2°40.55 -999 0.074727 0.402019 13.41659
2009-02-26 12:47:59 51°10.412 2°40.309 -999 0.074727 0.402054 13.59071
2009-02-26 12:48:59 51°10.354 2°40.067 -999 0.074727 0.402095 14.113071
2009-02-26 12:49:59 51°10.299 2°39.824 -999 0.074727 0.402144 14.461312
2009-02-26 12:50:59 51°10.24 2°39.581 -999 0.074727 0.402179 14.809552
2009-02-26 12:51:59 51°10.18 2°39.338 -999 0.074624 0.401641 15.714978
2009-02-26 12:52:59 51°10.124 2°39.092 -999 0.074624 0.401683 16.272162
2009-02-26 12:53:59 51°10.068 2°38.844 -999 0.074624 0.401718 16.898995
2009-02-26 12:54:59 51°10.013 2°38.6 -999 0.074624 0.401766 17.003468
2009-02-26 12:55:59 51°9.954 2°38.358 -999 0.074624 0.401808 17.038292
2009-02-26 12:56:59 51°9.896 2°38.117 -999 0.074624 0.40185 17.003468
2009-02-26 12:57:59 51°9.84 2°37.875 -999 0.074624 0.401885 16.864171
2009-02-26 12:58:59 51°9.786 2°37.629 -999 0.074624 0.401926 17.10794
2009-02-26 12:59:59 51°9.731 2°37.384 -999 0.074624 0.401968 17.247236
2009-02-26 13:00:59 51°9.674 2°37.138 -999 0.074624 0.402003 17.386532
2009-02-26 13:01:59 51°9.617 2°36.891 -999 0.074624 0.402031 17.839245
2009-02-26 13:02:59 51°9.56 2°36.64 -999 0.074624 0.402066 18.083013
2009-02-26 13:03:59 51°9.507 2°36.386 -999 0.074624 0.402107 18.39643
2009-02-26 13:04:59 51°9.453 2°36.135 -999 0.074624 0.402156 18.640198
2009-02-26 13:05:59 51°9.395 2°35.881 -999 0.074624 0.402184 18.222309
2009-02-26 13:06:59 51°9.341 2°35.625 -999 0.074521 0.401652 17.769597
2009-02-26 13:07:59 51°9.283 2°35.367 -999 0.074521 0.401694 17.386532
2009-02-26 13:08:59 51°9.224 2°35.11 -999 0.074521 0.401736 17.10794
2009-02-26 13:09:59 51°9.166 2°34.852 -999 0.074521 0.401764 16.864171
2009-02-26 13:10:59 51°9.117 2°34.596 -999 0.074521 0.401806 16.968644
2009-02-26 13:11:59 51°9.066 2°34.347 -999 0.074521 0.401854 16.481107
2009-02-26 13:12:59 51°9.01 2°34.104 -999 0.074521 0.401896 15.540857
2009-02-26 13:13:59 51°8.951 2°33.86 -999 0.074521 0.401931 15.610505
2009-02-26 13:14:59 51°8.893 2°33.609 -999 0.074521 0.40198 15.471209
2009-02-26 13:15:59 51°8.835 2°33.352 -999 0.074521 0.402015 15.889098
2009-02-26 13:16:59 51°8.777 2°33.092 -999 0.074521 0.402057 16.237338
2009-02-26 13:17:59 51°8.719 2°32.83 -999 0.074521 0.402092 16.550755
2009-02-26 13:18:59 51°8.665 2°32.661 -999 0.074521 0.402147 17.142764
2009-02-26 13:19:59 51°8.61 2°32.66 -999 0.074418 0.401587 18.048189
2009-02-26 13:20:59 51°8.563 2°32.694 -999 0.074418 0.401608 17.595476
2009-02-26 13:21:59 51°8.523 2°32.728 -999 0.074418 0.40165 17.699949
2009-02-26 13:22:59 51°8.489 2°32.751 -999 0.074418 0.401699 17.247236
2009-02-26 13:23:59 51°8.46 2°32.763 -999 0.074418 0.401741 16.620403
2009-02-26 13:24:59 51°8.434 2°32.742 -999 0.074418 0.401776 16.237338
2009-02-26 13:25:59 51°8.438 2°32.678 -999 0.074418 0.401825 15.923922
2009-02-26 13:26:59 51°8.492 2°32.629 -999 0.074418 0.40188 15.749802
2009-02-26 13:27:59 51°8.571 2°32.63 -999 0.074418 0.401922 16.063218
2009-02-26 13:28:59 51°8.647 2°32.654 -999 0.074418 0.401964 16.341811
2009-02-26 13:29:59 51°8.72 2°32.693 -999 0.074418 0.40202 15.99357
2009-02-26 13:30:59 51°8.786 2°32.766 -999 0.074418 0.402097 15.923922
2009-02-26 13:31:59 51°8.827 2°32.877 -999 0.074418 0.402181 16.620403
2009-02-26 13:32:59 51°8.839 2°32.996 -999 0.074315 0.40169 18.187485
2009-02-26 13:33:59 51°8.834 2°33.108 -999 0.074315 0.401767 18.849142
2009-02-26 13:34:59 51°8.822 2°33.215 -999 0.074315 0.401844 18.57055
2009-02-26 13:35:59 51°8.813 2°33.325 -999 0.074315 0.401907 18.222309
2009-02-26 13:36:59 51°8.81 2°33.442 -999 0.074315 0.40197 18.291958
2009-02-26 13:37:59 51°8.808 2°33.559 -999 0.074315 0.40204 18.326782
2009-02-26 13:38:59 51°8.811 2°33.68 -999 0.074213 0.401527 18.013365
2009-02-26 13:39:59 51°8.819 2°33.804 -999 0.074213 0.401597 17.874069
2009-02-26 13:40:59 51°8.827 2°33.93 -999 0.074213 0.401674 17.630301
2009-02-26 13:41:59 51°8.835 2°34.056 -999 0.074213 0.401765 17.247236
2009-02-26 13:42:59 51°8.852 2°34.182 -999 0.074213 0.401849 16.864171
2009-02-26 13:43:59 51°8.876 2°34.308 -999 0.074213 0.40194 16.515931
2009-02-26 13:44:59 51°8.904 2°34.432 -999 0.074213 0.402039 15.854274
2009-02-26 13:45:59 51°8.935 2°34.555 -999 0.07411 0.401567 15.645329
2009-02-26 13:46:59 51°8.971 2°34.675 -999 0.07411 0.401652 15.436385
2009-02-26 13:47:59 51°9.004 2°34.795 -999 0.07411 0.401729 14.809552
2009-02-26 13:48:59 51°9.034 2°34.913 -999 0.07411 0.401799 14.774728
2009-02-26 13:49:59 51°9.064 2°35.03 -999 0.07411 0.401862 14.565784
2009-02-26 13:50:59 51°9.094 2°35.145 -999 0.07411 0.401925 14.322015
2009-02-26 13:51:59 51°9.123 2°35.26 -999 0.07411 0.401989 14.426488
2009-02-26 13:52:59 51°9.153 2°35.374 -999 0.074007 0.401468 14.426488
2009-02-26 13:53:59 51°9.183 2°35.489 -999 0.074007 0.401524 13.973775
2009-02-26 13:54:59 51°9.212 2°35.605 -999 0.074007 0.401573 13.834479
2009-02-26 13:55:59 51°9.243 2°35.72 -999 0.074007 0.401629 14.113071
2009-02-26 13:56:59 51°9.269 2°35.835 -999 0.074007 0.401671 14.043423
2009-02-26 13:57:59 51°9.277 2°35.946 -999 0.074007 0.401735 14.252367
2009-02-26 13:58:59 51°9.267 2°36.04 -999 0.074007 0.401791 15.227441
2009-02-26 13:59:59 51°9.252 2°36.117 -999 0.074007 0.401847 15.366737
2009-02-26 14:00:59 51°9.239 2°36.175 -999 0.074007 0.401903 15.297089
2009-02-26 14:01:59 51°9.235 2°36.224 -999 0.074007 0.40196 15.680154
2009-02-26 14:02:59 51°9.237 2°36.27 -999 0.074007 0.402016 15.749802
2009-02-26 14:03:59 51°9.243 2°36.318 -999 0.074007 0.40208 15.99357
2009-02-26 14:04:59 51°9.242 2°36.369 -999 0.074007 0.402143 16.550755
2009-02-26 14:05:59 51°9.229 2°36.479 -999 0.073904 0.401621 17.316884
2009-02-26 14:06:59 51°9.297 2°36.574 -999 0.073904 0.401621 17.525828
2009-02-26 14:07:59 51°9.445 2°36.602 -999 0.073904 0.40167 17.699949
2009-02-26 14:08:59 51°9.644 2°36.637 -999 0.073904 0.401677 16.968644
2009-02-26 14:09:59 51°9.858 2°36.615 -999 0.073904 0.401825 17.421356
2009-02-26 14:10:59 51°10.07 2°36.585 -999 0.073904 0.401847 15.714978
2009-02-26 14:12:00 51°10.286 2°36.556 -999 0.073904 0.401938 14.8792
2009-02-26 14:13:00 51°10.498 2°36.535 -999 0.073904 0.402093 13.172822
2009-02-26 14:14:00 51°10.712 2°36.542 -999 0.073904 0.402242 11.988804
2009-02-26 14:15:00 51°10.928 2°36.555 -999 0.073904 0.402369 14.391664
2009-02-26 14:16:00 51°11.142 2°36.572 -999 0.073801 0.401924 14.948848
2009-02-26 14:17:00 51°11.352 2°36.627 -999 0.073801 0.402051 15.227441
2009-02-26 14:18:00 51°11.562 2°36.705 -999 0.073801 0.402171 16.550755
2009-02-26 14:19:00 51°11.771 2°36.777 -999 0.073801 0.402278 19.475975
2009-02-26 14:20:00 51°11.979 2°36.849 -999 0.073801 0.402377 20.381401
2009-02-26 14:21:00 51°12.188 2°36.883 -999 0.073801 0.40249 20.485873
2009-02-26 14:22:00 51°12.397 2°36.893 -999 0.073698 0.402009 20.137632
2009-02-26 14:23:00 51°12.607 2°36.928 -999 0.073698 0.402129 19.023263
2009-02-26 14:24:00 51°12.816 2°36.973 -999 0.073698 0.402243 18.152661
2009-02-26 14:25:00 51°13.026 2°37.017 -999 0.073698 0.402342 17.142764
2009-02-26 14:26:00 51°13.236 2°37.062 -999 0.073698 0.40247 15.854274
2009-02-26 14:27:00 51°13.446 2°37.099 -999 0.073698 0.402605 15.401561
2009-02-26 14:28:00 51°13.645 2°37.05 -999 0.073595 0.402159 15.122969
2009-02-26 14:29:00 51°13.736 2°36.825 -999 0.073595 0.402287 14.739904
2009-02-26 14:30:00 51°13.693 2°36.564 -999 0.073595 0.402429 13.834479
2009-02-26 14:31:00 51°13.605 2°36.324 -999 0.073595 0.402578 13.172822
2009-02-26 14:32:00 51°13.511 2°36.087 -999 0.073595 0.402735 13.555886
2009-02-26 14:33:00 51°13.419 2°35.848 -999 0.073492 0.402274 13.625534
2009-02-26 14:34:00 51°13.343 2°35.595 -999 0.073492 0.40238 14.147895
2009-02-26 14:35:00 51°13.27 2°35.339 -999 0.073492 0.402487 14.322015
2009-02-26 14:36:00 51°13.192 2°35.089 -999 0.073492 0.40258 14.217543
2009-02-26 14:37:00 51°13.119 2°34.835 -999 0.073492 0.40268 14.147895
2009-02-26 14:38:00 51°13.044 2°34.579 -999 0.073492 0.402759 14.182719
2009-02-26 14:39:00 51°12.969 2°34.323 -999 0.073492 0.40283 14.635432
2009-02-26 14:40:00 51°12.894 2°34.068 -999 0.073492 0.402909 14.914024
2009-02-26 14:41:00 51°12.819 2°33.811 -999 0.073492 0.402987 14.70508
2009-02-26 14:42:00 51°12.745 2°33.552 -999 0.073389 0.402475 14.70508
2009-02-26 14:43:00 51°12.666 2°33.295 -999 0.073389 0.402547 14.496136
2009-02-26 14:44:00 51°12.59 2°33.037 -999 0.073389 0.402611 14.356839
2009-02-26 14:45:00 51°12.513 2°32.781 -999 0.073389 0.402675 13.904127
2009-02-26 14:46:00 51°12.444 2°32.524 -999 0.073389 0.40274 13.660358
2009-02-26 14:47:00 51°12.369 2°32.269 -999 0.073389 0.402797 12.789757
2009-02-26 14:48:00 51°12.293 2°32.01 -999 0.073389 0.402847 11.327147
2009-02-26 14:49:00 51°12.218 2°31.75 -999 0.073389 0.402904 11.292323
2009-02-26 14:50:00 51°12.139 2°31.496 -999 0.073389 0.402954 11.187851
2009-02-26 14:51:00 51°12.068 2°31.233 -999 0.073389 0.402997 10.769962
2009-02-26 14:52:00 51°12.007 2°30.963 -999 0.073389 0.403055 10.735138
2009-02-26 14:53:00 51°11.958 2°30.687 -999 0.073389 0.403098 10.700314
2009-02-26 14:54:00 51°11.977 2°30.398 -999 0.073389 0.403155 10.944082
2009-02-26 14:55:00 51°12.094 2°30.175 -999 0.073389 0.403212 11.153027
2009-02-26 14:56:00 51°12.303 2°30.151 -999 0.073389 0.403277 11.01373
2009-02-26 14:57:00 51°12.513 2°30.247 -999 0.073389 0.403327 10.247601
2009-02-26 14:58:00 51°12.707 2°30.4 -999 0.073286 0.402814 9.72524
2009-02-26 14:59:00 51°12.892 2°30.579 -999 0.073286 0.40285 9.934185
2009-02-26 15:00:00 51°13.071 2°30.776 -999 0.073286 0.402907 10.909258
2009-02-26 15:01:00 51°13.251 2°30.968 -999 0.073286 0.40295 11.536091
2009-02-26 15:02:00 51°13.433 2°31.153 -999 0.073286 0.402986 11.675387
2009-02-26 15:03:00 51°13.611 2°31.345 -999 0.073286 0.403029 11.814684
2009-02-26 15:04:00 51°13.788 2°31.541 -999 0.073286 0.403072 12.023628
2009-02-26 15:05:00 51°13.968 2°31.732 -999 0.073286 0.403123 12.197748
2009-02-26 15:06:00 51°14.148 2°31.922 -999 0.073286 0.403173 12.615637
2009-02-26 15:07:00 51°14.328 2°32.11 -999 0.073286 0.403223 12.615637
2009-02-26 15:08:00 51°14.506 2°32.304 -999 0.073286 0.403274 12.824581
2009-02-26 15:09:00 51°14.685 2°32.498 -999 0.073286 0.403317 12.859405
2009-02-26 15:10:00 51°14.864 2°32.691 -999 0.073286 0.403367 12.615637
2009-02-26 15:11:00 51°15.036 2°32.896 -999 0.073286 0.403425 12.1281
2009-02-26 15:12:00 51°15.203 2°33.113 -999 0.073286 0.403461 11.814684
2009-02-26 15:13:00 51°15.37 2°33.328 -999 0.073286 0.403504 11.710211
2009-02-26 15:14:00 51°15.537 2°33.541 -999 0.073286 0.403554 11.501267
2009-02-26 15:15:00 51°15.704 2°33.756 -999 0.073286 0.403612 11.501267
2009-02-26 15:16:00 51°15.874 2°33.964 -999 0.073184 0.403076 11.361971
2009-02-26 15:17:00 51°16.027 2°34.194 -999 0.073184 0.403126 11.361971
2009-02-26 15:18:00 51°16.104 2°34.509 -999 0.073184 0.403191 11.466443
2009-02-26 15:19:00 51°16.173 2°34.835 -999 0.073184 0.403278 11.675387
2009-02-26 15:20:00 51°16.21 2°35.165 -999 0.073184 0.403292 11.884332
2009-02-26 15:21:00 51°16.163 2°35.491 -999 0.073184 0.403357 12.267396
2009-02-26 15:22:00 51°16.125 2°35.828 -999 0.073184 0.4034 12.929053
2009-02-26 15:23:00 51°16.129 2°36.179 -999 0.073184 0.403436 13.033525
2009-02-26 15:24:00 51°16.232 2°36.483 -999 0.073184 0.403501 12.441517
2009-02-26 15:25:00 51°16.407 2°36.702 -999 0.073184 0.403508 12.162924
2009-02-26 15:26:00 51°16.56 2°36.964 -999 0.073184 0.403573 11.849508
2009-02-26 15:27:00 51°16.687 2°37.263 -999 0.073184 0.403609 11.675387
2009-02-26 15:28:00 51°16.804 2°37.574 -999 0.073184 0.403653 11.745035
2009-02-26 15:29:00 51°16.917 2°37.893 -999 0.073184 0.403689 11.745035
2009-02-26 15:30:00 51°17.031 2°38.209 -999 0.073184 0.403725 11.77986
2009-02-26 15:31:00 51°17.147 2°38.517 -999 0.073184 0.403775 11.884332
2009-02-26 15:32:00 51°17.263 2°38.828 -999 0.073184 0.403819 12.859405
2009-02-26 15:33:00 51°17.354 2°39.15 -999 0.073081 0.403282 12.894229
2009-02-26 15:34:00 51°17.389 2°39.487 -999 0.073081 0.403325 12.685285
2009-02-26 15:35:00 51°17.376 2°39.818 -999 0.073081 0.403361 12.789757
2009-02-26 15:36:00 51°17.364 2°40.152 -999 0.073081 0.403412 12.720109
2009-02-26 15:37:00 51°17.364 2°40.488 -999 0.073081 0.403448 12.1281
2009-02-26 15:38:00 51°17.361 2°40.828 -999 0.073081 0.403484 11.466443
2009-02-26 15:39:00 51°17.361 2°41.165 -999 0.073081 0.403528 11.222675
2009-02-26 15:40:00 51°17.363 2°41.505 -999 0.073081 0.403571 11.153027
2009-02-26 15:41:00 51°17.365 2°41.848 -999 0.073081 0.403622 11.118203
2009-02-26 15:42:00 51°17.364 2°42.189 -999 0.073081 0.403651 11.396795
2009-02-26 15:43:00 51°17.362 2°42.527 -999 0.073081 0.403694 11.919156
2009-02-26 15:44:00 51°17.363 2°42.866 -999 0.073081 0.403745 12.998701
2009-02-26 15:45:00 51°17.343 2°43.194 -999 0.073081 0.403795 13.172822
2009-02-26 15:46:00 51°17.259 2°43.482 -999 0.073081 0.403831 13.625534
2009-02-26 15:47:00 51°17.14 2°43.739 -999 0.073081 0.403868 13.06835
2009-02-26 15:48:00 51°17.02 2°43.995 -999 0.073081 0.403911 12.685285
2009-02-26 15:49:00 51°16.905 2°44.254 -999 0.072978 0.403366 12.894229
2009-02-26 15:50:00 51°16.795 2°44.52 -999 0.072978 0.403402 12.894229
2009-02-26 15:51:00 51°16.696 2°44.799 -999 0.072978 0.403453 12.441517
2009-02-26 15:52:00 51°16.607 2°45.084 -999 0.072978 0.403497 11.919156
2009-02-26 15:53:00 51°16.541 2°45.388 -999 0.072978 0.403511 11.536091
2009-02-26 15:54:00 51°16.49 2°45.702 -999 0.072978 0.403533 11.710211
2009-02-26 15:55:00 51°16.419 2°46.001 -999 0.072978 0.403591 12.058452
2009-02-26 15:56:00 51°16.344 2°46.297 -999 0.072978 0.403627 12.441517
2009-02-26 15:57:00 51°16.267 2°46.596 -999 0.072978 0.403663 12.685285
2009-02-26 15:58:00 51°16.197 2°46.908 -999 0.072978 0.403692 12.441517
2009-02-26 15:59:00 51°16.124 2°47.216 -999 0.072978 0.403736 11.570915
2009-02-26 16:00:00 51°16.05 2°47.523 -999 0.072978 0.403765 10.561018
2009-02-26 16:01:00 51°15.98 2°47.834 -999 0.072978 0.403815 10.143129
2009-02-26 16:02:00 51°15.905 2°48.144 -999 0.072978 0.403837 9.829713
2009-02-26 16:03:00 51°15.833 2°48.454 -999 0.072978 0.403881 9.655592
2009-02-26 16:04:00 51°15.758 2°48.757 -999 0.072978 0.403917 9.690416
2009-02-26 16:05:00 51°15.682 2°49.06 -999 0.072978 0.403961 9.690416
2009-02-26 16:06:00 51°15.605 2°49.36 -999 0.072978 0.404004 9.72524
2009-02-26 16:07:00 51°15.529 2°49.667 -999 0.072875 0.403444 9.690416
2009-02-26 16:08:00 51°15.473 2°49.986 -999 0.072875 0.403473 9.20288
2009-02-26 16:09:00 51°15.44 2°50.313 -999 0.072875 0.403516 8.750167
2009-02-26 16:10:00 51°15.422 2°50.642 -999 0.072875 0.403553 8.018862
2009-02-26 16:11:00 51°15.404 2°50.974 -999 0.072875 0.403589 7.91439
2009-02-26 16:12:00 51°15.389 2°51.304 -999 0.072875 0.403633 7.600973
2009-02-26 16:13:00 51°15.377 2°51.636 -999 0.072875 0.403662 6.97414
2009-02-26 16:14:00 51°15.342 2°51.961 -999 0.072875 0.403705 7.14826
2009-02-26 16:15:00 51°15.284 2°52.275 -999 0.072875 0.403749 7.252733
2009-02-26 16:16:00 51°15.22 2°52.584 -999 0.072875 0.403785 6.939316
2009-02-26 16:17:00 51°15.155 2°52.892 -999 0.072875 0.403829 6.068715
2009-02-26 16:18:00 51°15.093 2°53.197 -999 0.072875 0.403843 6.765196
2009-02-26 16:19:00 51°15.02 2°53.492 -999 0.072875 0.40388 5.650826
2009-02-26 16:20:00 51°14.942 2°53.78 -999 0.072875 0.403916 5.616002
2009-02-26 16:21:00 51°14.853 2°54.062 -999 0.072875 0.403952 5.302586
2009-02-26 16:22:00 51°14.742 2°54.318 -999 0.072875 0.403989 5.093641
2009-02-26 16:23:00 51°14.621 2°54.568 -999 0.072875 0.404032 4.815049
2009-02-26 16:24:00 51°14.494 2°54.812 -999 0.072875 0.404061 4.989169
2009-02-26 16:25:00 51°14.37 2°55.048 -999 0.072875 0.404098 5.720474
2009-02-26 16:26:00 51°14.25 2°55.274 -999 0.072875 0.404134 -1.453281
2009-02-26 16:27:00 51°14.109 2°55.418 -999 0.072875 0.404185 -1.453281
2009-02-26 16:28:00 51°13.972 2°55.519 -999 0.072772 0.403639 -1.453281
2009-02-26 16:29:00 51°13.852 2°55.608 -999 0.072772 0.403668 -1.418457
2009-02-26 16:30:00 51°13.762 2°55.706 -999 0.072772 0.403711 -1.244337
2009-02-26 16:31:00 51°13.696 2°55.833 -999 0.072772 0.403748 -1.244337
2009-02-26 16:32:00 51°13.662 2°55.946 -999 0.072772 0.403813 -1.244337
2009-02-26 16:33:00 51°13.662 2°55.955 -999 0.072772 0.403886 -1.244337